[[{"header":{"parameterUnit":"m.s-1","parameterCategory":1,"la1":30.2991,"la2":30.254,"lo1":-89.0895,"lo2":-89.0444,"dy":0.0017,"dx":0.0017,"nx":28,"ny":28,"refTime":"2024-04-02T03:00:00:Z","depth":0,"parameterNumber":2,"parameterNumberName":"U-component_of_WINDS"},"data":[0,0,0,0,0,0,0,0,0,0,0,0,0,0,0,0,0,0,0,0,0,0,0,0,0,0,0,0,0,0,0,0,0,0,0,0,0,0,0,0,0,0,0,0,0,0,0,0,0,0,0,0,0,0,0,0,0,0,5.5387,5.5389,0,5.5565,5.5567,5.5569,5.5498,5.5494,5.549,5.5486,5.5673,5.5682,5.569,0,0,0,0,0,0,0,0,0,0,0,0,0,5.499,5.4998,5.5387,5.5389,5.5391,5.5565,5.5567,5.557,5.5499,5.5494,5.5488,5.5484,5.567,5.568,5.5691,0,0,0,0,0,0,0,0,0,0,0,0,0,5.5165,5.5,5.5387,5.5377,5.5378,5.5564,5.5567,5.5571,5.55,5.5493,5.5487,5.5481,5.5666,5.5679,5.5693,5.5901,0,0,5.5733,5.5739,0,0,0,0,0,0,0,0,5.5155,5.518,5.5376,5.5378,5.5379,5.5503,5.5496,5.5682,5.5501,5.5454,5.5485,5.5478,5.5622,5.5638,5.5686,5.591,5.5918,5.5735,5.5743,5.5748,5.5752,0,0,0,0,0,0,0,5.5143,5.5172,5.5458,5.5379,5.5381,5.5365,5.5383,5.5531,5.5571,5.5457,5.5452,5.5474,5.5621,5.5673,5.569,5.5921,5.5734,5.5746,5.5754,5.576,5.6327,5.6333,0,0,0,0,0,0,5.513,5.5162,5.5452,5.5463,5.5249,5.5377,5.5397,5.547,5.5569,5.5578,5.5479,5.547,5.5653,5.5674,5.5696,5.5948,5.5748,5.5761,5.5769,5.632,5.6328,5.6336,0,0,0,0,0,0,5.5122,5.5157,5.5445,5.5311,5.5347,5.5391,5.5473,5.5476,5.5528,5.5586,5.5593,5.5525,5.5649,5.5677,5.5851,5.5953,5.5767,5.5779,5.6311,5.6322,5.6332,5.6453,0,0,0,0,0,0,5.5111,5.5154,5.5232,5.5314,5.5354,5.5596,5.5479,5.5484,5.5551,5.554,5.563,5.5639,5.5646,5.5831,5.5864,5.5968,5.5789,5.6302,5.6316,5.6329,5.644,5.6466,5.6489,0,0,0,0,0,5.5097,5.526,5.5237,5.5272,5.5453,5.5601,5.5625,5.5629,5.5559,5.5639,5.5677,5.5636,5.5937,5.585,5.5886,5.5996,5.6296,5.6312,5.6328,5.6429,5.6461,5.6488,0,0,0,0,0,0,5.5192,5.5271,5.5246,5.544,5.5514,5.5589,5.569,5.5662,5.5759,5.5746,5.5748,5.5769,5.5948,5.5989,5.5891,5.6204,5.6106,5.613,5.6171,5.6202,5.6225,5.6213,5.5801,0,0,0,0,0,5.5235,5.5347,5.5411,5.5576,5.5614,5.5646,5.5711,5.5707,5.5785,5.5817,5.5867,5.5946,5.6058,5.6132,5.6238,5.6445,5.6465,5.6539,5.6563,5.6583,5.6604,5.6718,5.6753,5.6388,5.6388,5.6388,0,0,5.5326,5.5383,5.5454,5.5596,5.5654,5.5772,5.5673,5.5802,5.589,5.5837,5.6004,5.6044,5.6132,5.6323,5.641,5.6363,5.6709,5.6603,5.6619,5.6629,5.6738,5.6773,5.6804,5.6399,5.6397,5.6395,0,0,5.5552,5.5606,5.575,5.5809,5.5897,5.5917,5.5952,5.6031,5.6055,5.6222,5.6185,5.6291,5.6483,5.6548,5.6606,5.6858,5.6825,5.6892,5.7021,5.7132,5.7161,5.7186,5.7278,5.731,5.6913,5.6913,5.6913,0,5.5655,5.583,5.5828,5.596,5.6025,5.598,5.6128,5.6186,5.6305,5.6351,5.6296,5.6537,5.6593,5.68,5.6862,5.691,5.6951,5.6883,5.7156,5.7182,5.7206,5.7293,5.7327,5.6921,5.692,5.6919,5.6919,0,5.5952,5.6074,5.6181,5.6295,5.6371,5.6511,5.6532,5.661,5.66,5.6626,5.6798,5.6863,5.6983,5.7031,5.7023,5.7238,5.7206,5.7154,5.7056,5.7248,5.733,5.7364,5.6932,5.6929,5.6927,5.6925,0,0,5.6244,5.6355,5.6395,5.6447,5.654,5.6635,5.6773,5.6888,5.6956,5.704,5.7157,5.7321,5.7273,5.7339,5.7338,5.7436,5.7633,5.7372,5.7374,5.7419,5.7876,5.7916,5.7954,5.7611,5.7617,5.7623,5.7869,0,5.6479,5.6719,5.6722,5.6944,5.7057,5.7017,5.7137,5.7209,5.7237,5.734,5.7371,5.7488,5.7416,5.7456,5.755,5.7589,5.7725,5.7571,5.7722,5.7728,5.7703,5.7997,5.8039,5.8269,5.7901,5.7906,5.791,0,5.6785,5.6877,5.711,5.7188,5.7236,5.7344,5.745,5.7547,5.7628,5.7642,5.7716,5.7701,5.7843,5.774,5.7938,5.7833,5.7895,5.7923,5.7932,5.7948,5.7832,5.8022,5.8342,5.8377,5.7961,5.7957,5.7953,0,5.6977,5.7159,5.7322,5.7368,5.7462,5.7539,5.7582,5.7657,5.7726,5.782,5.7865,5.7975,5.8036,5.8122,5.8137,5.8059,5.8336,5.8233,5.8353,5.8353,5.8414,5.8411,5.8751,5.8452,5.8452,5.8451,5.845,0,5.724,5.7385,5.741,5.751,5.7671,5.7674,5.7834,5.7871,5.7938,5.8046,5.8018,5.8121,5.8133,5.824,5.8253,5.8416,5.8443,5.846,5.8462,5.8464,5.8462,5.8505,5.8491,5.846,5.8458,5.8456,5.8455,0,5.7482,5.7504,5.768,5.7754,5.7777,5.7892,5.7957,5.8054,5.8079,5.8217,5.825,5.829,5.8415,5.8438,5.8585,5.8593,5.8788,5.8773,5.8761,5.8759,5.8879,5.8868,5.926,5.9312,5.8978,5.8981,5.8984,0,5.7649,5.7759,5.7845,5.7915,5.7962,5.8075,5.8145,5.8152,5.8227,5.8328,5.8414,5.8534,5.8631,5.8832,5.8876,5.8989,5.8978,5.9107,5.8995,5.8993,5.8982,5.8976,5.8988,5.913,5.9133,5.9136,5.9138,0,5.7944,5.795,5.8051,5.8158,5.8242,5.8327,5.8407,5.8466,5.8484,5.857,5.8696,5.8771,5.8921,5.9042,5.9155,5.9201,5.9175,5.9173,5.9207,5.9211,5.92,5.9209,5.8821,5.9165,5.9162,5.916,5.9159,5.9158,5.8155,5.8252,5.8327,5.8442,5.8502,5.8578,5.8673,5.871,5.8814,5.8936,5.8934,5.9072,5.9152,5.9299,5.9353,5.9463,5.9422,5.9471,5.9484,5.9496,5.9508,5.9181,5.9483,5.9483,5.9482,5.9481,5.9481,0,5.845,5.8497,5.8602,5.8714,5.8805,5.8769,5.8856,5.8935,5.9057,5.9132,5.9228,5.9374,5.9491,5.9544,5.966,5.9738,5.9729,5.9769,5.9764,5.9776,5.9537,5.9497,5.9774,5.9774,5.9774,5.9774,5.9774,5.9774,5.8615,5.8776,5.8791,5.8982,5.9028,5.9162,5.9215,5.9286,5.9346,5.9509,5.9606,5.9639,5.9706,5.9827,5.9934,5.9946,5.9991,6.0037,6.0045,5.9822,5.9792,5.9764,5.9726,6.0047,6.0047,6.0274,6.0276,6.0277]},{"header":{"parameterUnit":"m.s-1","parameterCategory":1,"la1":30.2991,"la2":30.254,"lo1":-89.0895,"lo2":-89.0444,"dy":0.0017,"dx":0.0017,"nx":28,"ny":28,"refTime":"2024-04-02T03:00:00:Z","depth":0,"parameterNumber":3,"parameterNumberName":"V-component_of_WINDS"},"data":[0,0,0,0,0,0,0,0,0,0,0,0,0,0,0,0,0,0,0,0,0,0,0,0,0,0,0,0,0,0,0,0,0,0,0,0,0,0,0,0,0,0,0,0,0,0,0,0,0,0,0,0,0,0,0,0,0,0,-1.4722,-1.4723,0,-1.4801,-1.4802,-1.4803,-1.4817,-1.4817,-1.4816,-1.4816,-1.4898,-1.4901,-1.4904,0,0,0,0,0,0,0,0,0,0,0,0,0,-1.4587,-1.4589,-1.4722,-1.4723,-1.4724,-1.4801,-1.4802,-1.4803,-1.4818,-1.4817,-1.4816,-1.4815,-1.4898,-1.4901,-1.4904,0,0,0,0,0,0,0,0,0,0,0,0,0,-1.4654,-1.459,-1.4722,-1.4741,-1.4743,-1.4801,-1.4802,-1.4803,-1.4818,-1.4817,-1.4816,-1.4815,-1.4896,-1.4901,-1.4905,-1.495,0,0,-1.4918,-1.4919,0,0,0,0,0,0,0,0,-1.465,-1.4659,-1.4737,-1.4739,-1.4742,-1.4798,-1.4785,-1.4853,-1.4818,-1.4789,-1.4816,-1.4814,-1.4866,-1.4873,-1.489,-1.4954,-1.4958,-1.4918,-1.4921,-1.4922,-1.4924,0,0,0,0,0,0,0,-1.4645,-1.4655,-1.4753,-1.4738,-1.4741,-1.4746,-1.4754,-1.4798,-1.4832,-1.4792,-1.4793,-1.4802,-1.4867,-1.4886,-1.4892,-1.4959,-1.4918,-1.4922,-1.4924,-1.4926,-1.5065,-1.5067,0,0,0,0,0,0,-1.4637,-1.4651,-1.4751,-1.4756,-1.4693,-1.4749,-1.4758,-1.4781,-1.4832,-1.4839,-1.4803,-1.4802,-1.4879,-1.4887,-1.4895,-1.4952,-1.4922,-1.4926,-1.4929,-1.5064,-1.5066,-1.5067,0,0,0,0,0,0,-1.4634,-1.4646,-1.4748,-1.4704,-1.4717,-1.4752,-1.4778,-1.4783,-1.4802,-1.484,-1.4847,-1.4815,-1.4878,-1.4889,-1.4936,-1.4955,-1.4928,-1.4932,-1.5063,-1.5065,-1.5066,-1.5066,0,0,0,0,0,0,-1.463,-1.4644,-1.4661,-1.4704,-1.4719,-1.4787,-1.4779,-1.4786,-1.4809,-1.4809,-1.4853,-1.486,-1.4879,-1.493,-1.4941,-1.496,-1.4935,-1.5061,-1.5064,-1.5066,-1.5064,-1.5067,-1.507,0,0,0,0,0,-1.4625,-1.4658,-1.4662,-1.4674,-1.4741,-1.4788,-1.4797,-1.4817,-1.481,-1.4828,-1.4853,-1.4858,-1.4951,-1.4935,-1.4947,-1.4968,-1.506,-1.5063,-1.5066,-1.5063,-1.5067,-1.507,0,0,0,0,0,0,-1.4617,-1.4664,-1.4669,-1.4717,-1.4748,-1.479,-1.4813,-1.482,-1.4855,-1.4854,-1.4879,-1.4889,-1.4935,-1.4956,-1.4937,-1.5015,-1.5005,-1.5011,-1.4999,-1.5003,-1.5006,-1.5,-1.4939,0,0,0,0,0,-1.4621,-1.4654,-1.4694,-1.4732,-1.4748,-1.4778,-1.4799,-1.4812,-1.4846,-1.486,-1.4888,-1.4921,-1.4958,-1.4982,-1.5018,-1.5068,-1.5078,-1.5088,-1.5091,-1.5093,-1.5098,-1.5127,-1.5132,-1.5076,-1.5076,-1.5076,0,0,-1.4629,-1.4659,-1.4679,-1.4732,-1.4758,-1.4792,-1.4789,-1.4826,-1.4852,-1.4865,-1.4912,-1.4934,-1.4973,-1.5022,-1.5045,-1.5041,-1.5115,-1.5097,-1.5098,-1.5101,-1.513,-1.5135,-1.514,-1.5078,-1.5077,-1.5077,0,0,-1.4662,-1.4688,-1.4723,-1.4749,-1.4788,-1.4808,-1.4816,-1.4858,-1.4873,-1.492,-1.4931,-1.4963,-1.5026,-1.5053,-1.5075,-1.512,-1.5127,-1.5131,-1.5146,-1.5174,-1.5178,-1.5182,-1.5199,-1.5204,-1.5135,-1.5135,-1.5135,0,-1.4668,-1.472,-1.474,-1.4777,-1.48,-1.4813,-1.485,-1.4874,-1.4924,-1.494,-1.4935,-1.5014,-1.5041,-1.5098,-1.5108,-1.5126,-1.5137,-1.5126,-1.5176,-1.518,-1.5184,-1.52,-1.5206,-1.5135,-1.5135,-1.5135,-1.5135,0,-1.4725,-1.4761,-1.4785,-1.4832,-1.4858,-1.4894,-1.4921,-1.4945,-1.4957,-1.4977,-1.5026,-1.5059,-1.5102,-1.5116,-1.5128,-1.5174,-1.5171,-1.517,-1.5161,-1.5189,-1.5205,-1.5211,-1.5136,-1.5136,-1.5136,-1.5135,0,0,-1.4755,-1.4813,-1.4821,-1.4843,-1.4887,-1.4916,-1.4954,-1.4996,-1.5016,-1.505,-1.5083,-1.5136,-1.5136,-1.5161,-1.5176,-1.52,-1.5234,-1.5197,-1.5198,-1.5203,-1.5289,-1.5289,-1.5296,-1.5239,-1.524,-1.5241,-1.5286,0,-1.4794,-1.486,-1.488,-1.4936,-1.497,-1.4984,-1.5016,-1.5048,-1.5068,-1.5101,-1.5124,-1.5162,-1.5159,-1.5174,-1.5199,-1.5225,-1.5252,-1.5222,-1.5271,-1.5272,-1.5261,-1.5304,-1.5304,-1.5345,-1.5292,-1.5293,-1.5294,0,-1.4848,-1.4882,-1.4941,-1.4982,-1.4997,-1.5026,-1.5066,-1.5097,-1.5134,-1.5147,-1.5175,-1.5188,-1.5229,-1.5217,-1.5275,-1.5254,-1.5275,-1.5291,-1.5293,-1.5299,-1.5285,-1.5311,-1.5358,-1.5365,-1.5304,-1.5303,-1.5302,0,-1.4865,-1.4925,-1.4969,-1.4987,-1.5035,-1.5056,-1.5077,-1.5112,-1.5136,-1.5172,-1.5188,-1.5228,-1.525,-1.5282,-1.5305,-1.5295,-1.5361,-1.5351,-1.5374,-1.5374,-1.5388,-1.5387,-1.5439,-1.5401,-1.5401,-1.54,-1.54,0,-1.4906,-1.4942,-1.4977,-1.5004,-1.5045,-1.5068,-1.5108,-1.513,-1.5162,-1.5194,-1.5208,-1.5238,-1.5268,-1.5302,-1.5321,-1.5366,-1.5376,-1.5389,-1.5393,-1.5388,-1.5386,-1.5402,-1.54,-1.5402,-1.5402,-1.5401,-1.5401,0,-1.4931,-1.4956,-1.5005,-1.5047,-1.5058,-1.5086,-1.5123,-1.515,-1.5171,-1.5212,-1.5223,-1.5257,-1.5298,-1.5325,-1.5377,-1.539,-1.544,-1.5443,-1.5427,-1.543,-1.5451,-1.5449,-1.5517,-1.5527,-1.5481,-1.5481,-1.5482,0,-1.4956,-1.4984,-1.5029,-1.5051,-1.5072,-1.5108,-1.5132,-1.5157,-1.5182,-1.5226,-1.5248,-1.529,-1.5325,-1.5391,-1.5421,-1.5461,-1.5466,-1.5487,-1.5473,-1.5466,-1.5468,-1.5466,-1.5469,-1.549,-1.549,-1.549,-1.5491,0,-1.4998,-1.5009,-1.5043,-1.5082,-1.5111,-1.5143,-1.5175,-1.5193,-1.5223,-1.5251,-1.5293,-1.532,-1.5374,-1.5416,-1.5459,-1.5483,-1.5492,-1.5495,-1.5503,-1.5497,-1.5487,-1.5494,-1.5434,-1.5493,-1.5493,-1.5493,-1.5493,-1.5493,-1.5025,-1.505,-1.5086,-1.5124,-1.515,-1.518,-1.5208,-1.5233,-1.5268,-1.5313,-1.5325,-1.537,-1.5407,-1.5466,-1.549,-1.5526,-1.5523,-1.5534,-1.5537,-1.554,-1.554,-1.5481,-1.5534,-1.5534,-1.5534,-1.5534,-1.5534,0,-1.5068,-1.5091,-1.5126,-1.517,-1.5201,-1.5206,-1.5242,-1.5267,-1.5306,-1.5339,-1.5373,-1.5422,-1.5463,-1.5496,-1.5539,-1.5561,-1.5566,-1.5571,-1.557,-1.5576,-1.5539,-1.5529,-1.5566,-1.5566,-1.5566,-1.5566,-1.5566,-1.5566,-1.5094,-1.5137,-1.5153,-1.521,-1.5234,-1.5277,-1.5297,-1.5325,-1.5352,-1.5405,-1.5439,-1.546,-1.5494,-1.5539,-1.5578,-1.5587,-1.5602,-1.5606,-1.5616,-1.5582,-1.5578,-1.5575,-1.5565,-1.5609,-1.5609,-1.5649,-1.565,-1.565]}]]